www.pogodaiklimat.ru

Погода и климат >> Архив погоды >> Мадагаскар >> Фарафангана


ПОГОДА в Фарафангане

  • Прогноз погоды в Фарафангане
  • Монитор погоды в Фарафангане

АРХИВ ПОГОДЫ в Фарафангане

Время (UTC), дата Ветер
(напр.,м/с)
 
Видим.   Явления Облачность Т
(С)
Тd
(С)
f
(%)
Тe
(С)
Тes
(С)
Комфортность P
(гПа)
Po
(гПа)
Тmin
(С)
Tmax
(С)
R
(мм)
R24
(мм)
S
(см)
00 13.06 штиль 0 25 км осадки на расстоянии 9/9 500 м
[Cu Sc]
1025.3 1024.6
03 13.06 штиль 0 25 км осадки на расстоянии 9/9 500 м
[Cu Sc]
1025.8 1025.1
06 13.06 В 1 30 км 6/6 600 м
[Cu Sc]
1025.4 1024.7
09 13.06 штиль 0 30 км 1/1 600 м
[Cu Sc]
1023.8 1023.1
12 13.06 штиль 0 30 км 1/1 600 м
[Cu Sc]
1022.7 1022.0
15 13.06 штиль 0 50 км осадки на расстоянии ?/? 0.0 +1 +1 1022.9 1022.2
00 14.06 штиль 0 30 км 1/1 600 м
[Cu Sc]
1023.0 1022.3
03 14.06 штиль 0 30 км 1/1 600 м
[Cu Sc]
1022.0 1021.3
06 14.06 штиль 0 30 км осадки на расстоянии 6/6 600 м
[Cu Sc]
1022.6 1021.9
09 14.06 штиль 0 30 км 4/4 600 м
[Cu Sc]
1020.8 1020.1
12 14.06 штиль 0 30 км 8/6 600 м
[Cu Sc]
1019.6 1018.9
15 14.06 штиль 0 30 км осадки на расстоянии 9/9 600 м
[Cu Sc]
1020.9 1020.2
00 15.06 штиль 0 30 км осадки на расстоянии 1/1 500 м
[Cu Sc]
1021.9 1021.3
03 15.06 штиль 0 30 км осадки на расстоянии 1/1 500 м
[Cu Sc]
1022.0 1021.3
06 15.06 штиль 0 30 км 1/1 600 м
[Cu Sc]
1023.5 1022.8
09 15.06 штиль 0 25 км осадки на расстоянии 9/9 500 м
[Cu Sc]
1023.1 1022.4 2
12 15.06 штиль 0 25 км осадки на расстоянии 9/9 500 м
[Cu Sc]
1021.7 1021.0 0.6
15 15.06 штиль 0 25 км осадки на расстоянии 6/6 500 м
[Cu Sc]
1022.7 1022.0 0.7
00 16.06 штиль 0 30 км осадки на расстоянии 1/1 600 м
[Cu Sc]
1024.0 1023.3
03 16.06 штиль 0 30 км осадки на расстоянии 1/1 600 м
[Cu Sc]
1024.2 1023.5
06 16.06 штиль 0 30 км осадки на расстоянии 6/6 1200 м
[Cu Sc]
1025.7 1025.0 3
09 16.06 0 осадки на расстоянии н/о 1024.8 1024.1
12 16.06 штиль 0 30 км 1/1 600 м
[Cu Sc]
1023.3 1022.6
15 16.06 штиль 0 30 км осадки на расстоянии 4/4 600 м
[Cu Sc]
1024.2 1023.5
00 17.06 штиль 0 25 км 9/9 500 м
[Cu Sc]
1025.1 1024.4
03 17.06 0 н/о 1025.8 1025.1
06 17.06 0 25 км 9/9 500 м
[Cu Sc]
1027.0 1026.3
09 17.06 0 25 км осадки на расстоянии 9/9 500 м
[Cu Sc]
1025.8 1025.1
12 17.06 штиль 0 20 км осадки на расстоянии 9/9 500 м
[Cu Sc]
1024.7 1024.0
15 17.06 штиль 0 25 км 9/9 500 м
[Cu Sc]
1025.6 1024.9
00 18.06 0 20 км осадки на расстоянии 9/9 500 м
[Cu Sc]
1025.3 1024.6
03 18.06 0 20 км осадки на расстоянии 9/9 500 м
[Cu Sc]
1024.8 1024.1
06 18.06 штиль 0 25 км 9/9 500 м
[Cu Sc]
+1 +1 1025.8 1025.1
09 18.06 штиль 0 25 км 9/9 500 м
[Cu Sc]
1023.7 1023.0
12 18.06 штиль 0 30 км 1/1 600 м
[Cu Sc]
1022.5 1021.8
15 18.06 штиль 0 30 км 1/1 600 м
[Cu Sc]
+1 +1 1022.0 1021.3
00 19.06 штиль 0 35 км 1/1 600 м
[Cu Sc]
+1 +1 1021.9 1021.2
03 19.06 штиль 0 30 км 1/1 600 м
[Cu Sc]
1020.8 1020.1
06 19.06 штиль 0 35 км 1/1 600 м
[Cu Sc]
1020.8 1020.1
09 19.06 штиль 0 30 км 1/1 600 м
[Cu Sc]
1019.6 1018.8
12 19.06 СВ 3 35 км 1/1 600 м
[Cu Sc]
1019.5 1017.8
15 19.06 СВ 3 25 км 9/9 500 м
[Cu Sc]
1019.5 1018.8

 

Местоположение метеостанции Фарафангана (Мадагаскар): широта -22.80 долгота 47.83 высота над уровнем моря 6 м.

В архиве по умолчанию представлена погода в Фарафангане за последнюю неделю. Архивные данные за месяц целиком и за предыдущие месяцы, начиная с января 2011 года, Вы можете получить, выбрав интересующий диапазон дат из раскрывающегося списка и нажав кнопку "Ввод!".


*Определитесь, кто Вы:
робот инопланетянин человек

Внимание! Время в таблицах - всемирное. Для получения местного времени необходимо прибавить поправку, которая равна 3 ч.

Смотрите также архив погоды в соседних городах и на ближайших метеорологических станциях:

Погода в Манандзари (Мадагаскар) (145 км)
Погода в Фианаранцуа (Мадагаскар) (168 км)
Погода в Толанаро (Мадагаскар) (264 км)
Погода в Анцирабе (Мадагаскар) (342 км)
Погода в Мааноро (Мадагаскар) (345 км)
Погода в Раноайре (Мадагаскар) (393 км)
Погода в Тулиаре (Мадагаскар) (424 км)
Погода в Антананариву (Мадагаскар) (438 км)
Погода в Антананариву аэропорт (Мадагаскар) (446 км)
Погода в Мурундаве (Мадагаскар) (459 км)

Пояснения к столбцам:

Ветер - указаны скорость ветра в м/с - средняя за 10 мин, порывы в срок и между сроками (в фигурных скобках) и направление, откуда дует ветер: С - северный, СВ - северо-восточный, В - восточный, ЮВ - юго-восточный, Ю - южный, ЮЗ - юго-западный, З - западный, СЗ - северо-западный.
Видимость - горизонтальная дальность видимости в метрах или километрах. При видимости от 1 до 10 км при отсутствии осадков обычно наблюдается дымка, при ухудшении видимости до 1 км и менее - туман. В сухую погоду видимость может ухудшаться дымом, пылью или мглою.
Явления - указаны атмосферные явления, наблюдавшиеся в срок или в последний час перед сроком; фигурными скобками обозначены явления, наблюдавшиеся между сроками (за 1-3 часа до срока); квадратными скобками обозначены град или гололедные отложения с указанием их диаметра в мм.
Облачность - указаны через наклонную черту общая и нижняя облачность в баллах и высота нижней границы облаков в метрах; квадратными скобками обозначены формы облаков: Ci - перистые, Cs - перисто-слоистые, Cc - перисто-кучевые, Ac - высококучевые, As - высокослоистые, Sc - слоисто-кучевые, Ns - слоисто-дождевые, Cu - кучевые, Cb - кучево-дождевые. Подробнее классификацию облаков см. в Атласе облаков (PDF).
T - Температура воздуха - температура, измеренная на высоте 2 м над землей.
Td - Температура точки росы - температура, при понижении до которой содержащийся в воздухе водяной пар достигнет насыщения.
f - Относительная влажность воздуха - влажноcть воздуха, измеренная на высоте 2 м над землей.
Te - Эффективная температура - температура, которую ощущает одетый по сезону человек в тени. Характеристика душности погоды. При расчете учитывается влияние влажности воздуха и скорости ветра на теплоощущения человека.
Tes - Эффективная температура на солнце - температура, которую ощущает человек, с поправкой на солнечный нагрев. Характеристика знойности погоды. Зависит от высоты солнца над горизонтом, облачности и скорости ветра. Ночью, в пасмурную погоду, а также при ветре 12 м/с и более поправка равна нулю.
P - Атмосферное давление - приведенное к уровню моря атмосферное давление.
Po - Атмосферное давление - измеренное на уровне метеостанции атмосферное давление.
Tmin - Минимальная температура - минимум температуры воздуха на высоте 2 м над землей.
Tmax - Максимальная температура - максимум температуры воздуха на высоте 2 м над землей.
R - Количество осадков - Количество выпавших осадков за период времени, мм. При наведении курсора мыши на число - период времени, за который выпало указанное количество осадков.
R24 - Количество осадков - Количество выпавших осадков за 24 часа, мм.
S - Снежный покров - Высота снежного покрова, см. При наведении курсора мыши на число - состояние снежного покрова и степень покрытия местности в баллах.